Orbital Elements at Epoch 2459200.5 (2020-Dec-17.0) TDB
Reference: JPL 18 (heliocentric ecliptic J2000)
Element | Value | Uncertainty (1-sigma) | Units |
e | .1083052926736944 | 4.6763e-08 | |
a | 2.2017942287322 | 8.7165e-09 | au |
q | 1.963328260382108 | 1.048e-07 | au |
i | 5.826328524966188 | 3.9725e-06 | deg |
node | 306.2382593463131 | 4.5079e-05 | deg |
peri | 67.89409815416072 | 4.8033e-05 | deg |
M | 114.9286043612815 | 1.6201e-05 | deg |
tp | 2458819.531425821166 (2019-Dec-02.03142582) | 5.3378e-05 | TDB |
period | 1193.338137764634 3.27 | 7.0863e-06 1.94e-08 | d yr |
n | .3016747630930102 | 1.7914e-09 | deg/d |
Q | 2.440260197082292 | 9.6606e-09 | au |
|
| | Orbit Determination Parameters
Additional Information
|